Date String (YYYY-MM-DD hh:mm:ss) UTC,Instrument flags,absolute air pressure of the measurement (hPa),sample flow rate (lpm),inlet stack bypass flow (lpm),air temperature of the measurement (°C),ambient temperature measured by the external sensor (°C),aerosol sample conditioner tube jacket temperature (°C),OPC LED temperature (°C),internal box temperature (°C),relative humidity of the measurement (%),span deviation,mass concentration of particles derived from Lorenz-Mie calculation of OPC scattering (μg/m³),mass concentration of particles derived from Lorenz-Mie calculation of OPC scattering (μg/m³),mass concentration of particles derived from Lorenz-Mie calculation of OPC scattering (μg/m³)
DateTimeUTC,F1_M11,P_M11,Q1_M11,Q2_M11,T1_M11,T2_M11,T3_M11,T4_M11,T5_M11,U1_M11,ZSPAN_M11,X2_M11,X0_M11,X1_M11
2023-10-17 23:00:00,SystemResetWarning,0827.2,5.00,000.00,028.0,025.2,000.0,036.4,029.6,12.5,0000.0,0002.43,0004.63,0002.06
2023-10-17 23:01:00,SystemResetWarning,0827.1,5.01,000.00,028.0,025.6,000.0,036.4,029.7,12.7,0000.0,0002.41,0003.75,0002.07
2023-10-17 23:02:00,SystemResetWarning,0827.1,5.00,000.00,028.0,026.0,000.0,036.4,029.7,12.8,0000.0,0002.42,0003.66,0002.09
2023-10-17 23:03:00,SystemResetWarning,0827.1,4.99,000.00,028.1,026.3,000.0,036.5,029.8,12.8,0000.0,0002.39,0003.54,0002.10
2023-10-17 23:04:00,SystemResetWarning,0827.1,5.00,000.00,028.1,026.6,000.0,036.5,029.9,12.8,0000.0,0002.37,0003.47,0002.09
2023-10-17 23:05:00,SystemResetWarning,0827.1,5.01,000.00,028.1,026.9,000.0,036.5,030.0,12.6,0000.0,0002.34,0003.35,0002.08
2023-10-17 23:06:00,SystemResetWarning,0827.1,5.01,000.00,028.2,027.1,000.0,036.5,030.1,12.6,0000.0,0002.33,0003.45,0002.07
2023-10-17 23:07:00,SystemResetWarning,0827.1,4.99,000.00,028.3,026.9,000.0,036.5,030.1,12.2,0000.0,0002.31,0003.44,0002.06
2023-10-17 23:08:00,SystemResetWarning,0827.1,5.00,000.00,028.2,025.3,000.0,036.5,029.9,12.2,0000.0,0002.31,0003.27,0002.07
2023-10-17 23:09:00,SystemResetWarning,0827.1,5.01,000.00,028.1,024.3,000.0,036.4,029.7,12.3,0000.0,0002.31,0003.71,0002.07
2023-10-17 23:10:00,SystemResetWarning,0827.1,5.01,000.00,028.0,024.5,000.0,036.4,029.6,12.4,0000.0,0002.29,0003.87,0002.05
2023-10-17 23:11:00,SystemResetWarning,0827.1,5.00,000.00,028.0,024.8,000.0,036.4,029.5,12.4,0000.0,0002.28,0004.84,0002.04
2023-10-17 23:12:00,SystemResetWarning,0827.1,5.00,000.00,027.9,025.2,000.0,036.4,029.6,12.5,0000.0,0002.28,0005.42,0002.05
2023-10-17 23:13:00,SystemResetWarning,0827.1,5.01,000.00,028.0,025.7,000.0,036.4,029.7,12.6,0000.0,0002.27,0005.37,0002.05
2023-10-17 23:14:00,SystemResetWarning,0827.2,4.99,000.00,028.0,026.0,000.0,036.5,029.8,12.5,0000.0,0002.25,0005.33,0002.04
2023-10-17 23:15:00,SystemResetWarning,0827.2,5.00,000.00,028.0,026.4,000.0,036.5,029.8,12.4,0000.0,0002.29,0005.42,0002.04
2023-10-17 23:16:00,SystemResetWarning,0827.2,5.00,000.00,028.1,026.6,000.0,036.5,029.9,12.4,0000.0,0002.32,0005.51,0002.05
2023-10-17 23:17:00,SystemResetWarning,0827.2,5.00,000.00,028.1,026.9,000.0,036.5,030.0,12.3,0000.0,0002.36,0005.47,0002.06
2023-10-17 23:18:00,SystemResetWarning,0827.2,5.01,000.00,028.2,027.1,000.0,036.5,030.1,12.2,0000.0,0002.39,0005.62,0002.07
2023-10-17 23:19:00,SystemResetWarning,0827.2,4.99,000.00,028.2,026.5,000.0,036.5,030.1,12.4,0000.0,0002.40,0005.67,0002.08
2023-10-17 23:20:00,SystemResetWarning,0827.1,5.00,000.00,028.2,024.7,000.0,036.5,029.8,12.6,0000.0,0002.41,0005.29,0002.08
2023-10-17 23:21:00,SystemResetWarning,0827.2,5.01,000.00,028.1,024.1,000.0,036.4,029.7,12.7,0000.0,0002.44,0005.42,0002.08
2023-10-17 23:22:00,SystemResetWarning,0827.1,5.01,000.00,028.0,024.4,000.0,036.4,029.6,12.8,0000.0,0002.45,0006.01,0002.09
2023-10-17 23:23:00,SystemResetWarning,0827.2,4.99,000.00,028.0,024.8,000.0,036.4,029.5,12.8,0000.0,0002.45,0005.01,0002.07
2023-10-17 23:24:00,SystemResetWarning,0827.1,5.01,000.00,027.9,025.2,000.0,036.4,029.6,12.6,0000.0,0002.43,0004.98,0002.05
2023-10-17 23:25:00,SystemResetWarning,0827.2,5.00,000.00,027.9,025.6,000.0,036.4,029.7,12.5,0000.0,0002.45,0005.12,0002.04
2023-10-17 23:26:00,SystemResetWarning,0827.2,5.00,000.00,028.0,026.0,000.0,036.4,029.7,12.5,0000.0,0002.45,0005.16,0002.03
2023-10-17 23:27:00,SystemResetWarning,0827.2,5.00,000.00,028.0,026.4,000.0,036.4,029.8,12.6,0000.0,0002.45,0005.19,0002.03
2023-10-17 23:28:00,SystemResetWarning,0827.2,5.01,000.00,028.1,026.6,000.0,036.5,029.9,12.6,0000.0,0002.45,0005.20,0002.01
2023-10-17 23:29:00,SystemResetWarning,0827.2,5.00,000.00,028.1,026.9,000.0,036.5,030.0,12.7,0000.0,0002.42,0005.13,0001.99
2023-10-17 23:30:00,SystemResetWarning,0827.2,5.00,000.00,028.2,027.1,000.0,036.5,030.1,12.7,0000.0,0002.42,0005.13,0001.97
2023-10-17 23:31:00,SystemResetWarning,0827.2,5.01,000.00,028.2,027.2,000.0,036.5,030.1,12.6,0000.0,0002.38,0005.08,0001.94
2023-10-17 23:32:00,SystemResetWarning,0827.2,4.99,000.00,028.3,027.0,000.0,036.6,030.2,12.6,0000.0,0002.37,0004.77,0001.94
2023-10-17 23:33:00,SystemResetWarning,0827.1,4.99,000.00,028.2,025.4,000.0,036.5,030.0,12.6,0000.0,0002.39,0003.62,0001.94
2023-10-17 23:34:00,SystemResetWarning,0827.1,5.01,000.00,028.2,024.2,000.0,036.4,029.8,12.6,0000.0,0002.37,0003.62,0001.93
2023-10-17 23:35:00,SystemResetWarning,0827.1,5.01,000.00,028.1,024.3,000.0,036.4,029.7,12.7,0000.0,0002.41,0005.68,0001.93
2023-10-17 23:36:00,SystemResetWarning,0827.1,4.99,000.00,028.0,024.7,000.0,036.4,029.6,12.7,0000.0,0002.38,0006.48,0001.93
2023-10-17 23:37:00,SystemResetWarning,0827.1,5.00,000.00,028.0,025.1,000.0,036.4,029.6,12.7,0000.0,0002.35,0006.35,0001.93
2023-10-17 23:38:00,SystemResetWarning,0827.1,5.01,000.00,028.0,025.5,000.0,036.4,029.6,12.7,0000.0,0002.34,0006.29,0001.93
2023-10-17 23:39:00,SystemResetWarning,0827.2,4.99,000.00,028.0,025.9,000.0,036.5,029.7,12.8,0000.0,0002.33,0006.26,0001.93
2023-10-17 23:40:00,SystemResetWarning,0827.1,4.98,000.00,028.0,026.2,000.0,036.5,029.8,12.8,0000.0,0002.32,0006.16,0001.94
2023-10-17 23:41:00,SystemResetWarning,0827.1,5.00,000.00,028.1,026.5,000.0,036.5,029.9,12.7,0000.0,0002.32,0006.58,0001.94
2023-10-17 23:42:00,SystemResetWarning,0827.2,5.01,000.00,028.1,026.8,000.0,036.5,030.0,12.7,0000.0,0002.34,0007.34,0001.95
2023-10-17 23:43:00,SystemResetWarning,0827.2,5.01,000.00,028.2,027.0,000.0,036.5,030.0,12.7,0000.0,0002.33,0007.33,0001.95
2023-10-17 23:44:00,SystemResetWarning,0827.2,5.00,000.00,028.2,027.2,000.0,036.6,030.1,12.7,0000.0,0002.30,0007.32,0001.96
2023-10-17 23:45:00,SystemResetWarning,0827.1,4.98,000.00,028.3,026.7,000.0,036.6,030.1,12.7,0000.0,0002.28,0007.24,0001.96
2023-10-17 23:46:00,SystemResetWarning,0827.1,5.00,000.00,028.2,024.8,000.0,036.5,029.9,12.7,0000.0,0002.28,0005.79,0001.96
2023-10-17 23:47:00,SystemResetWarning,0827.1,5.00,000.00,028.1,024.0,000.0,036.4,029.7,12.8,0000.0,0002.26,0004.36,0001.96
2023-10-17 23:48:00,SystemResetWarning,0827.2,5.02,000.00,028.1,024.2,000.0,036.4,029.6,12.9,0000.0,0002.29,0004.51,0001.96
2023-10-17 23:49:00,SystemResetWarning,0827.1,5.01,000.00,028.0,024.6,000.0,036.4,029.5,13.0,0000.0,0002.31,0004.57,0001.96
2023-10-17 23:50:00,SystemResetWarning,0827.2,5.00,000.00,027.9,025.1,000.0,036.4,029.6,12.9,0000.0,0002.29,0004.51,0001.96
2023-10-17 23:51:00,SystemResetWarning,0827.1,5.00,000.00,027.9,025.5,000.0,036.4,029.6,12.9,0000.0,0002.30,0004.66,0001.95
2023-10-17 23:52:00,SystemResetWarning,0827.1,4.99,000.00,028.0,025.9,000.0,036.5,029.7,12.9,0000.0,0002.27,0004.28,0001.95
2023-10-17 23:53:00,SystemResetWarning,0827.1,5.00,000.00,028.0,026.2,000.0,036.5,029.8,12.8,0000.0,0002.25,0003.43,0001.95
2023-10-17 23:54:00,SystemResetWarning,0827.2,5.00,000.00,028.0,026.5,000.0,036.5,029.9,12.9,0000.0,0002.29,0003.65,0001.95
2023-10-17 23:55:00,SystemResetWarning,0827.1,5.01,000.00,028.1,026.7,000.0,036.5,029.9,12.9,0000.0,0002.28,0003.51,0001.95
2023-10-17 23:56:00,SystemResetWarning,0827.1,5.00,000.00,028.1,026.9,000.0,036.5,030.0,12.8,0000.0,0002.29,0003.59,0001.94
2023-10-17 23:57:00,SystemResetWarning,0827.1,4.99,000.00,028.2,027.1,000.0,036.5,030.1,12.8,0000.0,0002.27,0004.57,0001.93
2023-10-17 23:58:00,SystemResetWarning,0827.2,4.99,000.00,028.2,027.3,000.0,036.6,030.1,12.8,0000.0,0002.28,0005.77,0001.92
2023-10-17 23:59:00,SystemResetWarning,0827.1,4.99,000.00,028.3,026.5,000.0,036.6,030.1,12.8,0000.0,0002.30,0005.78,0001.90
